This is the latest recevied weather packets stored in our database for station/object S57D-6. If no packets are shown the sender has not sent any weather packets the latest 10 day(s).
| Time | Temp. | Humidity | Pressure | Rain* | Wind** | Luminosity | Snow |
|---|---|---|---|---|---|---|---|
| 1777841874 | 12.78° C | 60% | 1015.9 hPa | 0 mm | - | - | - |
| 1777841571 | 12.78° C | 60% | 1015.9 hPa | 0 mm | - | - | - |
| 1777841271 | 13.33° C | 58% | 1016.1 hPa | 0 mm | - | - | - |
| 1777840970 | 13.33° C | 57% | 1016 hPa | 0 mm | - | - | - |
| 1777840671 | 13.89° C | 56% | 1016 hPa | 0 mm | - | - | - |
| 1777840370 | 13.89° C | 56% | 1016.1 hPa | 0 mm | - | - | - |
| 1777839769 | 14.44° C | 54% | 1016.1 hPa | 0 mm | - | - | - |
| 1777839470 | 15° C | 51% | 1016 hPa | 0 mm | - | - | - |
| 1777839169 | 14.44° C | 52% | 1016.1 hPa | 0 mm | - | - | - |
| 1777838869 | 14.44° C | 53% | 1016 hPa | 0 mm | - | - | - |
| 1777838568 | 14.44° C | 53% | 1016.2 hPa | 0 mm | - | - | - |
| 1777837968 | 15.56° C | 52% | 1016.2 hPa | 0 mm | - | - | - |
| 1777837668 | 15.56° C | 51% | 1016.2 hPa | 0 mm | - | - | - |
| 1777837367 | 15.56° C | 50% | 1016.1 hPa | 0 mm | - | - | - |
| 1777837068 | 16.67° C | 48% | 1016.1 hPa | 0 mm | - | - | - |
| 1777836766 | 17.22° C | 44% | 1016 hPa | 0 mm | - | - | - |
| 1777836166 | 17.22° C | 43% | 1016 hPa | 0 mm | - | - | - |
| 1777835866 | 17.78° C | 43% | 1016 hPa | 0 mm | - | - | - |
| 1777835565 | 17.78° C | 43% | 1015.9 hPa | 0 mm | - | - | - |
| 1777835266 | 17.78° C | 42% | 1015.9 hPa | 0 mm | - | - | - |
| 1777834965 | 17.78° C | 42% | 1015.8 hPa | 0 mm | - | - | - |
| 1777834364 | 18.33° C | 42% | 1015.7 hPa | 0 mm | - | - | - |
| 1777834065 | 18.33° C | 42% | 1015.7 hPa | 0 mm | - | - | - |
| 1777833764 | 18.33° C | 41% | 1015.7 hPa | 0 mm | - | - | - |
| 1777833464 | 18.89° C | 42% | 1015.5 hPa | 0 mm | - | - | - |
* Rain latest hour (hover to see other rain measurements)
** Current wind speed in m/s (hover to see current wind gust speed)